Flag for Israel Weather past 2 weeks in Kfar Saba, Israel

Now
84 °F

Scattered clouds.


Feels Like: 91 °F
Forecast: 76 / 86 °F
Wind: 7 mph from Southwest

Location: Dov Airport

Current Time: Aug 2, 2014 at 11:17:16 AM

Latest Report: Aug 2, 2014 at 9:50 AM


Visibility: N/A

Pressure: 29.74 "Hg

Humidity: 70%

Dew point: 73 °F

Location of Kfar SabaLocation

Historic Weather in Kfar Saba — Graph

°F

Kfar Saba temperature yesterday

Maximum temperature yesterday: 86 °F (at 1:50 PM)
Minimum temperature yesterday: 75 °F (at 5:50 AM)
Average temperature yesterday: 83 °F

Past Weeks' High & Low Weather Summary

 TemperatureHumidityPressure
High88 °F (Jul 24, 2:50 PM)89% (Jul 24, 6:50 AM)29.89 "Hg (Jul 24, 6:50 AM)
Low75 °F (Jul 30, 5:50 AM)55% (Jul 25, 11:50 AM)29.68 "Hg (Aug 1, 5:50 PM)
Average83 °F69%29.76 "Hg
* Reported Jul 18 9:50 AM — Aug 2 9:50 AM, Kfar Saba, Weather by CustomWeather, © 2014

Note: Actual official high and low records may vary slightly from our data, if they occured in-between our weather recording intervals... More about our weather records

Advertising

Kfar Saba weather history for previous 24 hours

 ConditionsComfort  
Time TempWeatherWind HumidityBarometerVisibility
9:50 AM
Aug 2
84 °FScattered clouds.7 mph70%29.74 "HgN/A
8:50 AM82 °FPartly sunny.6 mph70%29.74 "HgN/A
7:50 AM79 °FPassing clouds.6 mph74%29.74 "HgN/A
6:50 AM75 °FPassing clouds.5 mph78%29.71 "HgN/A
5:50 AM75 °FPassing clouds.6 mph78%29.71 "HgN/A
4:50 AM75 °FPassing clouds.6 mph83%29.68 "HgN/A
9:50 PM
Aug 1
81 °FClear.5 mph74%29.71 "Hg10 mi
8:50 PM81 °FClear.3 mph74%29.71 "Hg10 mi
7:50 PM82 °FPassing clouds.6 mph74%29.71 "HgN/A
6:50 PM84 °FPassing clouds.7 mph70%29.68 "HgN/A
5:50 PM84 °FPassing clouds.8 mph70%29.68 "HgN/A
4:50 PM84 °FPassing clouds.9 mph70%29.71 "HgN/A
3:50 PM86 °FPassing clouds.10 mph66%29.71 "HgN/A
2:50 PM86 °FPassing clouds.12 mph66%29.71 "HgN/A
1:50 PM86 °FSunny.12 mph62%29.71 "Hg10 mi
12:50 PM84 °FSunny.12 mph66%29.71 "Hg10 mi
11:50 AM84 °FSunny.12 mph66%29.74 "Hg10 mi
Weather by CustomWeather, © 2014

See weather overviewHow to use our weather pages